KD8PH Weather Reports


time (UTC)temp
F
wind
direction
speed
knots
gust
knots
rain 1hr
in
rain 24hr
in
rain mn
in
humidity
%
barometer
mb
20260504150539 65 225 7.0 13.0 0.00 0.00 0.00 59 1015.5
20260504140545 63 248 1.7 7.0 0.00 0.00 0.00 60 1016.1
20260504130536 59 203 0.9 3.5 0.00 0.00 0.00 71 1016.4
20260504110539 49 0.0 0.0 0.00 0.00 0.00 92 1015.7
20260504100548 49 0.0 0.0 0.00 0.00 0.00 92 1015.5
20260504081542 49 0.0 0.0 0.00 0.00 0.00 91 1015.3
20260504080546 50 0.0 0.0 0.00 0.00 0.00 91 1015.3
20260504050544 52 0.0 0.9 0.00 0.00 0.00 87 1016.3
20260504045534 52 0.0 0.9 0.00 0.00 0.00 86 1016.2
20260504044537 52 315 0.9 1.7 0.00 0.00 0.00 85 1016.2
20260504043553 52 315 0.9 1.7 0.00 0.00 0.00 85 1016.2
20260504042537 52 0.0 0.9 0.00 0.00 0.00 84 1016.1
20260504041540 52 0.0 0.9 0.00 0.00 0.00 83 1016.2
20260504040547 52 338 0.9 1.7 0.00 0.00 0.00 81 1016.3
20260504035539 52 338 0.9 1.7 0.00 0.00 0.00 79 1016.5
20260504034543 53 0.0 0.9 0.00 0.00 0.00 79 1016.6
20260504033534 53 315 0.9 1.7 0.00 0.00 0.00 80 1016.7
20260504032537 53 315 0.9 1.7 0.00 0.00 0.00 79 1016.8
20260504031538 54 0.0 0.9 0.00 0.00 0.00 78 1016.8
20260504030539 54 338 0.9 1.7 0.00 0.00 0.00 77 1016.8
20260504025535 54 338 0.9 1.7 0.00 0.00 0.00 77 1016.7
20260504024550 54 0.0 0.9 0.00 0.00 0.00 76 1016.6
20260504023552 55 0.0 0.9 0.00 0.00 0.00 76 1016.5
20260504022538 55 0.0 1.7 0.00 0.00 0.00 74 1016.3
20260504021536 55 338 0.9 2.6 0.00 0.00 0.00 73 1016.2
20260504020541 56 338 0.9 0.9 0.00 0.00 0.00 75 1016.0
20260504015542 56 0.0 1.7 0.00 0.00 0.00 74 1015.9
20260504014534 57 0.0 0.0 0.00 0.00 0.00 74 1015.9
20260504013538 58 0.0 1.7 0.00 0.00 0.00 74 1015.7
20260504012536 59 0.0 0.9 0.00 0.00 0.00 71 1015.8
20260504011537 59 0.0 1.7 0.00 0.00 0.00 70 1015.7
20260504010539 60 0.0 0.9 0.00 0.00 0.00 68 1015.7
20260504005535 61 0.0 0.9 0.00 0.00 0.00 65 1015.7
20260504004541 61 0 0.9 1.7 0.00 0.00 0.00 63 1015.7
20260504003537 63 0 0.9 1.7 0.00 0.00 0.00 61 1015.6
20260504002534 64 315 0.9 1.7 0.00 0.00 0.00 57 1015.6
20260504001548 65 0.0 0.9 0.00 0.00 0.00 53 1015.5
20260504000541 66 0.0 0.9 0.00 0.00 0.00 50 1015.6
20260503235540 67 0.0 1.7 0.00 0.00 0.00 48 1015.6
20260503234545 68 315 1.7 3.5 0.00 0.00 0.00 44 1015.6
20260503233540 68 315 1.7 3.5 0.00 0.00 0.00 44 1015.6
20260503232544 68 315 0.9 2.6 0.00 0.00 0.00 43 1015.6
20260503231538 68 315 1.7 4.3 0.00 0.00 0.00 43 1015.6
20260503230533 67 315 2.6 8.7 0.00 0.00 0.00 43 1015.6
20260503225538 67 315 1.7 3.5 0.00 0.00 0.00 42 1015.7
20260503224541 68 338 1.7 4.3 0.00 0.00 0.00 46 1015.8
20260503223543 69 315 2.6 7.8 0.00 0.00 0.00 40 1015.7
20260503222539 69 338 1.7 3.5 0.00 0.00 0.00 42 1015.9
20260503221535 69 293 1.7 4.3 0.00 0.00 0.00 40 1016.0
20260503220537 69 338 1.7 5.2 0.00 0.00 0.00 41 1016.0
20260503215535 69 315 2.6 7.0 0.00 0.00 0.00 39 1016.1
20260503214537 69 315 2.6 7.0 0.00 0.00 0.00 40 1016.2
20260503213541 68 225 2.6 7.0 0.00 0.00 0.00 42 1016.2
20260503212537 69 293 1.7 7.0 0.00 0.00 0.00 39 1016.4
20260503211535 69 315 1.7 5.2 0.00 0.00 0.00 41 1016.4
20260503210543 68 315 2.6 7.0 0.00 0.00 0.00 41 1016.6
20260503205541 68 315 1.7 5.2 0.00 0.00 0.00 40 1016.7
20260503204550 67 315 3.5 7.0 0.00 0.00 0.00 42 1016.9
20260503203549 66 248 2.6 6.1 0.00 0.00 0.00 44 1017.0
20260503202549 66 225 6.1 9.6 0.00 0.00 0.00 45 1017.1
20260503201538 66 225 3.5 7.8 0.00 0.00 0.00 48 1017.3
20260503200537 66 248 2.6 7.0 0.00 0.00 0.00 47 1017.4
20260503195542 65 225 5.2 8.7 0.00 0.00 0.00 49 1017.6
20260503194540 65 248 4.3 10.4 0.00 0.00 0.00 49 1017.9
20260503193537 65 248 3.5 9.6 0.00 0.00 0.00 50 1018.1
20260503192539 65 248 3.5 9.6 0.00 0.00 0.00 53 1018.2
20260503191541 63 225 6.1 9.6 0.00 0.00 0.00 51 1018.6
20260503190535 63 225 7.8 10.4 0.00 0.00 0.00 49 1018.8
20260503185540 63 225 2.6 4.3 0.00 0.00 0.00 46 1018.9
20260503184535 63 225 2.6 6.1 0.00 0.00 0.00 47 1019.0
20260503183536 62 225 5.2 8.7 0.00 0.00 0.00 48 1019.1
20260503182538 63 248 2.6 8.7 0.00 0.00 0.00 47 1019.2
20260503181536 63 225 2.6 8.7 0.00 0.00 0.00 52 1019.2
20260503180546 61 225 7.0 11.3 0.00 0.00 0.00 53 1019.4
20260503175549 61 225 4.3 9.6 0.00 0.00 0.00 50 1019.5
20260503174549 60 225 5.2 9.6 0.00 0.00 0.00 53 1019.6
20260503173539 59 180 1.7 5.2 0.00 0.00 0.00 53 1019.8
20260503172547 59 158 2.6 6.1 0.00 0.00 0.00 54 1019.9
20260503171535 59 180 3.5 7.8 0.00 0.00 0.00 52 1020.0
20260503170534 59 225 1.7 3.5 0.00 0.00 0.00 54 1020.2